[[{"header":{"parameterUnit":"m.s-1","parameterCategory":1,"la1":30.2991,"la2":30.254,"lo1":-89.0895,"lo2":-89.0444,"dy":0.0017,"dx":0.0017,"nx":28,"ny":28,"refTime":"2024-03-31T09:00:00:Z","depth":0,"parameterNumber":2,"parameterNumberName":"U-component_of_WINDS"},"data":[0,0,0,0,0,0,0,0,0,0,0,0,0,0,0,0,0,0,0,0,0,0,0,0,0,0,0,0,0,0,0,0,0,0,0,0,0,0,0,0,0,0,0,0,0,0,0,0,0,0,0,0,0,0,0,0,0,0,-0.422,-0.422,0,-0.42,-0.42,-0.42,-0.418,-0.418,-0.418,-0.4179,-0.416,-0.416,-0.416,0,0,0,0,0,0,0,0,0,0,0,0,0,-0.4242,-0.4242,-0.422,-0.422,-0.4219,-0.42,-0.42,-0.42,-0.418,-0.418,-0.418,-0.4179,-0.416,-0.416,-0.416,0,0,0,0,0,0,0,0,0,0,0,0,0,-0.4228,-0.4242,-0.422,-0.4207,-0.4206,-0.42,-0.42,-0.4199,-0.418,-0.418,-0.4179,-0.4179,-0.4161,-0.416,-0.416,-0.4165,0,0,-0.4159,-0.4158,0,0,0,0,0,0,0,0,-0.4229,-0.4228,-0.421,-0.4208,-0.4207,-0.4192,-0.4201,-0.4188,-0.418,-0.419,-0.4179,-0.4179,-0.4171,-0.417,-0.4167,-0.4164,-0.4163,-0.4159,-0.4158,-0.4158,-0.4158,0,0,0,0,0,0,0,-0.423,-0.4228,-0.4212,-0.4209,-0.4208,-0.4203,-0.4201,-0.4198,-0.4183,-0.4189,-0.4188,-0.4186,-0.4171,-0.4168,-0.4167,-0.4163,-0.4159,-0.4158,-0.4158,-0.4158,-0.4163,-0.4163,0,0,0,0,0,0,-0.4233,-0.4229,-0.4213,-0.4212,-0.4217,-0.4203,-0.42,-0.4197,-0.4183,-0.4181,-0.4186,-0.4185,-0.4168,-0.4167,-0.4166,-0.4171,-0.4158,-0.4158,-0.4158,-0.4162,-0.4163,-0.4163,0,0,0,0,0,0,-0.4233,-0.4232,-0.4214,-0.422,-0.4217,-0.4203,-0.42,-0.4197,-0.4194,-0.4181,-0.4178,-0.4186,-0.4168,-0.4166,-0.4165,-0.417,-0.4158,-0.4157,-0.4162,-0.4163,-0.4163,-0.4181,0,0,0,0,0,0,-0.4234,-0.4232,-0.4234,-0.422,-0.4217,-0.4213,-0.42,-0.4197,-0.4193,-0.4192,-0.418,-0.4177,-0.4168,-0.4166,-0.4165,-0.4169,-0.4157,-0.4161,-0.4162,-0.4163,-0.418,-0.4182,-0.4184,0,0,0,0,0,-0.4235,-0.424,-0.4234,-0.4232,-0.4219,-0.4213,-0.4212,-0.42,-0.4194,-0.4196,-0.4187,-0.4178,-0.4169,-0.4166,-0.4165,-0.4169,-0.4161,-0.4162,-0.4163,-0.4179,-0.4182,-0.4184,0,0,0,0,0,0,-0.4255,-0.4238,-0.4231,-0.4232,-0.4224,-0.421,-0.4212,-0.4203,-0.4198,-0.4196,-0.4183,-0.418,-0.418,-0.4174,-0.4171,-0.4173,-0.4164,-0.4165,-0.4177,-0.4179,-0.4181,-0.4183,-0.4157,0,0,0,0,0,-0.426,-0.4256,-0.4242,-0.4244,-0.424,-0.4227,-0.4224,-0.4215,-0.4207,-0.4204,-0.4195,-0.4188,-0.4183,-0.4181,-0.4176,-0.4179,-0.4176,-0.4181,-0.4183,-0.4185,-0.4185,-0.4186,-0.4188,-0.4166,-0.4166,-0.4166,0,0,-0.4269,-0.4259,-0.4258,-0.4248,-0.4241,-0.4238,-0.4224,-0.4222,-0.4219,-0.4204,-0.4202,-0.4195,-0.4186,-0.4186,-0.4186,-0.4181,-0.4191,-0.4186,-0.4187,-0.4187,-0.4187,-0.4189,-0.4191,-0.4167,-0.4166,-0.4166,0,0,-0.4285,-0.4277,-0.4278,-0.4271,-0.426,-0.4251,-0.4251,-0.4238,-0.4233,-0.423,-0.4218,-0.4215,-0.4208,-0.4202,-0.4198,-0.421,-0.4201,-0.4209,-0.4219,-0.422,-0.4222,-0.4223,-0.4227,-0.4229,-0.421,-0.421,-0.421,0,-0.4299,-0.4293,-0.4279,-0.4277,-0.4273,-0.4257,-0.4258,-0.4252,-0.4241,-0.4238,-0.4233,-0.4223,-0.4216,-0.4214,-0.4217,-0.4214,-0.4214,-0.421,-0.4222,-0.4224,-0.4225,-0.4229,-0.423,-0.4211,-0.421,-0.421,-0.421,0,-0.431,-0.4306,-0.4308,-0.4296,-0.4292,-0.4291,-0.4278,-0.4275,-0.4267,-0.4258,-0.4256,-0.4246,-0.4239,-0.4238,-0.423,-0.4235,-0.4232,-0.4225,-0.4216,-0.4228,-0.4232,-0.4233,-0.4212,-0.4212,-0.4211,-0.4211,0,0,-0.4339,-0.4319,-0.432,-0.4314,-0.43,-0.4297,-0.4296,-0.4288,-0.4286,-0.4278,-0.4276,-0.427,-0.4263,-0.4258,-0.4249,-0.425,-0.4259,-0.4242,-0.4242,-0.4246,-0.4264,-0.427,-0.4272,-0.4253,-0.4254,-0.4254,-0.4265,0,-0.4353,-0.4348,-0.4335,-0.4335,-0.4331,-0.4316,-0.4315,-0.4306,-0.4298,-0.4294,-0.4285,-0.428,-0.4271,-0.4268,-0.4268,-0.4258,-0.4263,-0.4257,-0.4252,-0.4252,-0.4255,-0.4274,-0.428,-0.4291,-0.4266,-0.4266,-0.4266,0,-0.4368,-0.436,-0.436,-0.4345,-0.4343,-0.4342,-0.4333,-0.4329,-0.4319,-0.4313,-0.4307,-0.4297,-0.4295,-0.4286,-0.4282,-0.4278,-0.4275,-0.427,-0.427,-0.427,-0.426,-0.4274,-0.4294,-0.4296,-0.4268,-0.4268,-0.4268,0,-0.439,-0.4379,-0.4377,-0.4372,-0.4356,-0.4355,-0.4348,-0.4337,-0.4333,-0.4326,-0.4323,-0.4316,-0.4312,-0.4306,-0.4294,-0.4289,-0.4291,-0.4282,-0.4286,-0.4287,-0.4288,-0.4288,-0.4309,-0.4286,-0.4286,-0.4286,-0.4286,0,-0.4406,-0.4406,-0.4386,-0.4385,-0.4384,-0.4369,-0.4369,-0.4361,-0.4351,-0.4348,-0.4335,-0.4332,-0.4316,-0.4312,-0.4303,-0.4301,-0.4299,-0.4294,-0.4292,-0.4295,-0.4296,-0.4294,-0.4293,-0.4286,-0.4286,-0.4286,-0.4286,0,-0.4431,-0.4417,-0.4413,-0.4397,-0.4393,-0.4393,-0.438,-0.4378,-0.4368,-0.4364,-0.4363,-0.4348,-0.4342,-0.4329,-0.432,-0.4313,-0.4314,-0.4309,-0.4317,-0.4316,-0.4321,-0.4321,-0.4341,-0.4343,-0.4319,-0.4319,-0.4319,0,-0.4443,-0.4442,-0.4425,-0.4422,-0.4415,-0.441,-0.4405,-0.439,-0.4386,-0.4373,-0.4373,-0.4366,-0.4359,-0.4351,-0.4339,-0.4332,-0.4327,-0.4334,-0.4326,-0.433,-0.4327,-0.4328,-0.4327,-0.4337,-0.4337,-0.4337,-0.4338,0,-0.4465,-0.4458,-0.4451,-0.4442,-0.4436,-0.4429,-0.442,-0.4418,-0.4401,-0.4397,-0.439,-0.4385,-0.4375,-0.4368,-0.4359,-0.4352,-0.4342,-0.434,-0.4341,-0.4345,-0.4349,-0.4347,-0.4323,-0.434,-0.434,-0.434,-0.4339,-0.4339,-0.4484,-0.4482,-0.447,-0.4462,-0.4454,-0.4446,-0.4443,-0.4433,-0.4427,-0.4417,-0.4408,-0.4402,-0.4391,-0.4378,-0.4371,-0.4366,-0.4361,-0.4363,-0.4363,-0.4363,-0.4365,-0.435,-0.4365,-0.4364,-0.4364,-0.4364,-0.4364,0,-0.4505,-0.4496,-0.449,-0.4477,-0.4472,-0.4462,-0.4451,-0.4448,-0.4442,-0.4432,-0.4426,-0.4418,-0.441,-0.4398,-0.4389,-0.4388,-0.4383,-0.4386,-0.4387,-0.4385,-0.437,-0.437,-0.439,-0.439,-0.439,-0.439,-0.439,-0.439,-0.4516,-0.4513,-0.4504,-0.4496,-0.4487,-0.448,-0.4475,-0.4468,-0.446,-0.4451,-0.4445,-0.4436,-0.4425,-0.4416,-0.4409,-0.4405,-0.4403,-0.4407,-0.4402,-0.4389,-0.4386,-0.4384,-0.4384,-0.4407,-0.4407,-0.4418,-0.4418,-0.4418]},{"header":{"parameterUnit":"m.s-1","parameterCategory":1,"la1":30.2991,"la2":30.254,"lo1":-89.0895,"lo2":-89.0444,"dy":0.0017,"dx":0.0017,"nx":28,"ny":28,"refTime":"2024-03-31T09:00:00:Z","depth":0,"parameterNumber":3,"parameterNumberName":"V-component_of_WINDS"},"data":[0,0,0,0,0,0,0,0,0,0,0,0,0,0,0,0,0,0,0,0,0,0,0,0,0,0,0,0,0,0,0,0,0,0,0,0,0,0,0,0,0,0,0,0,0,0,0,0,0,0,0,0,0,0,0,0,0,0,2.9691,2.9692,0,2.9744,2.9745,2.9745,2.9723,2.9721,2.972,2.9719,2.9775,2.9778,2.9781,0,0,0,0,0,0,0,0,0,0,0,0,0,2.9572,2.9574,2.9691,2.9692,2.9692,2.9744,2.9745,2.9745,2.9723,2.9721,2.972,2.9718,2.9774,2.9778,2.9781,0,0,0,0,0,0,0,0,0,0,0,0,0,2.9624,2.9575,2.9691,2.9687,2.9688,2.9744,2.9745,2.9745,2.9723,2.9721,2.9719,2.9718,2.9773,2.9777,2.9781,2.9845,0,0,2.9794,2.9795,0,0,0,0,0,0,0,0,2.9621,2.9629,2.9687,2.9688,2.9688,2.9725,2.9723,2.9779,2.9724,2.971,2.9719,2.9717,2.976,2.9765,2.9779,2.9847,2.985,2.9794,2.9796,2.9798,2.9799,0,0,0,0,0,0,0,2.9618,2.9626,2.9712,2.9688,2.9689,2.9684,2.9689,2.9734,2.9745,2.9711,2.9709,2.9716,2.976,2.9775,2.978,2.985,2.9794,2.9797,2.98,2.9801,2.9972,2.9974,0,0,0,0,0,0,2.9614,2.9623,2.971,2.9714,2.9649,2.9687,2.9693,2.9715,2.9745,2.9747,2.9717,2.9715,2.977,2.9776,2.9782,2.9858,2.9798,2.9802,2.9804,2.997,2.9973,2.9975,0,0,0,0,0,0,2.9611,2.9622,2.9708,2.9668,2.9679,2.9691,2.9716,2.9717,2.9732,2.9749,2.9752,2.9731,2.9768,2.9777,2.9829,2.986,2.9804,2.9807,2.9968,2.9971,2.9974,3.0011,0,0,0,0,0,0,2.9608,2.9621,2.9645,2.9669,2.9681,2.9754,2.9718,2.9719,2.9739,2.9736,2.9763,2.9765,2.9767,2.9823,2.9833,2.9864,2.981,2.9965,2.9969,2.9973,3.0007,3.0015,3.0021,0,0,0,0,0,2.9604,2.9654,2.9647,2.9657,2.9711,2.9756,2.9763,2.9763,2.9742,2.9766,2.9777,2.9765,2.9855,2.9829,2.984,2.9873,2.9963,2.9968,2.9973,3.0003,3.0013,3.0021,0,0,0,0,0,0,2.9635,2.9657,2.9649,2.9708,2.973,2.9752,2.9783,2.9773,2.9802,2.9798,2.9798,2.9805,2.9859,2.9871,2.9841,2.9935,2.9906,2.9913,2.9925,2.9935,2.9942,2.9938,2.9814,0,0,0,0,0,2.9648,2.9682,2.97,2.975,2.9762,2.977,2.979,2.9788,2.9811,2.982,2.9835,2.9858,2.9891,2.9914,2.9945,3.0008,3.0014,3.0036,3.0043,3.0049,3.0056,3.0089,3.01,2.9991,2.9991,2.9991,0,0,2.9677,2.9693,2.9715,2.9757,2.9774,2.9809,2.9778,2.9817,2.9843,2.9826,2.9876,2.9888,2.9914,2.9971,2.9997,2.9983,3.0087,3.0055,3.006,3.0063,3.0095,3.0106,3.0115,2.9994,2.9993,2.9993,0,0,2.9747,2.9763,2.9806,2.9823,2.9848,2.9854,2.9864,2.9887,2.9894,2.9943,2.9931,2.9963,3.002,3.0039,3.0056,3.0132,3.0122,3.0142,3.0181,3.0214,3.0222,3.023,3.0257,3.0267,3.0149,3.0149,3.0149,0,2.978,2.9832,2.983,2.9869,2.9888,2.9873,2.9917,2.9934,2.9969,2.9982,2.9966,3.0037,3.0054,3.0115,3.0133,3.0148,3.016,3.014,3.0221,3.0229,3.0236,3.0262,3.0272,3.0151,3.0151,3.015,3.015,0,2.9871,2.9907,2.9939,2.9972,2.9994,3.0036,3.004,3.0063,3.0059,3.0066,3.0117,3.0136,3.0171,3.0185,3.0182,3.0246,3.0237,3.0221,3.0191,3.0249,3.0273,3.0283,3.0154,3.0154,3.0153,3.0152,0,0,2.9963,2.9993,3.0005,3.0019,3.0045,3.0073,3.0114,3.0147,3.0167,3.0191,3.0225,3.0274,3.0259,3.0278,3.0277,3.0306,3.0364,3.0286,3.0287,3.03,3.0436,3.0448,3.0459,3.0357,3.0359,3.0361,3.0434,0,3.0035,3.0106,3.0105,3.017,3.0204,3.0189,3.0225,3.0245,3.0252,3.0282,3.029,3.0324,3.0302,3.0313,3.0341,3.0351,3.0392,3.0346,3.039,3.0391,3.0384,3.0472,3.0485,3.0553,3.0443,3.0445,3.0446,0,3.013,3.0155,3.0224,3.0244,3.0258,3.029,3.032,3.0348,3.037,3.0373,3.0394,3.0389,3.043,3.0399,3.0456,3.0425,3.0443,3.045,3.0453,3.0458,3.0422,3.0479,3.0575,3.0585,3.0461,3.046,3.0459,0,3.019,3.0242,3.029,3.0302,3.0327,3.035,3.0361,3.0381,3.0401,3.0427,3.044,3.0471,3.0489,3.0513,3.0516,3.0493,3.0573,3.0542,3.0578,3.0578,3.0596,3.0595,3.0696,3.0607,3.0607,3.0606,3.0606,0,3.0271,3.0314,3.0317,3.0347,3.0394,3.0392,3.0439,3.0448,3.0466,3.0497,3.0487,3.0516,3.0518,3.0548,3.0551,3.0598,3.0606,3.061,3.061,3.0611,3.0611,3.0623,3.0619,3.0609,3.0609,3.0608,3.0608,0,3.0348,3.0351,3.0402,3.0421,3.0426,3.046,3.0476,3.0505,3.051,3.055,3.0559,3.0568,3.0603,3.0608,3.065,3.0651,3.0708,3.0703,3.07,3.07,3.0735,3.0732,3.0848,3.0864,3.0764,3.0764,3.0765,0,3.0399,3.0432,3.0453,3.0473,3.0485,3.0517,3.0536,3.0535,3.0556,3.0583,3.0608,3.0642,3.0669,3.0726,3.0737,3.0769,3.0765,3.0803,3.0769,3.0769,3.0766,3.0764,3.0767,3.081,3.0811,3.0812,3.0813,0,3.0491,3.0491,3.0519,3.0548,3.0571,3.0594,3.0616,3.0632,3.0634,3.0658,3.0693,3.0714,3.0756,3.079,3.082,3.0833,3.0824,3.0823,3.0833,3.0835,3.0832,3.0834,3.0718,3.0821,3.082,3.0819,3.0819,3.0819,3.0557,3.0584,3.0603,3.0635,3.0651,3.0671,3.0698,3.0706,3.0735,3.0768,3.0766,3.0805,3.0825,3.0865,3.088,3.0911,3.0898,3.0912,3.0916,3.092,3.0923,3.0826,3.0916,3.0916,3.0916,3.0916,3.0915,0,3.0648,3.0659,3.0688,3.0718,3.0742,3.073,3.0753,3.0774,3.0808,3.0828,3.0854,3.0894,3.0927,3.094,3.0971,3.0993,3.099,3.1002,3.1001,3.1004,3.0933,3.0921,3.1004,3.1004,3.1004,3.1004,3.1004,3.1004,3.0699,3.0744,3.0746,3.08,3.0811,3.0848,3.0862,3.088,3.0896,3.0941,3.0967,3.0974,3.0991,3.1024,3.1053,3.1056,3.1069,3.1083,3.1084,3.1018,3.1009,3.1,3.0989,3.1085,3.1085,3.1152,3.1153,3.1153]}]]